ATLAS CENTAUR 2 R/B 1 00694U 63047A 10211.52497574 .00000662 00000-0 75657-4 0 3348 2 00694 030.3624 242.6904 0616164 296.7535 057.1303 13.95253689330519 THOR AGENA D R/B 1 00733U 64002A 10210.73348120 -.00000001 +00000-0 +17891-4 0 01294 2 00733 099.0804 256.7825 0033958 293.0176 066.7428 14.31304567422506 SL-3 R/B 1 00877U 64053B 10211.78419005 -.00000053 00000-0 14233-4 0 4563 2 00877 065.0789 069.4861 0064127 003.3727 356.7784 14.58126888434917 SL-8 R/B 1 02802U 67045B 10210.83680582 +.00000060 +00000-0 +25615-4 0 03654 2 02802 074.0098 162.9403 0067196 102.1948 258.6749 14.42509575266299 SL-8 R/B 1 03230U 68040B 10210.52386496 .00000072 00000-0 12927-4 0 246 2 03230 074.0315 212.9568 0033251 113.2788 247.1900 14.84377673261683 OAO 2 1 03597U 68110A 10210.74885718 .00000012 00000-0 86486-5 0 3963 2 03597 034.9963 343.3818 0006425 300.2308 059.7740 14.44898958193930 ISIS 1 1 03669U 69009A 10210.66310840 .00000063 00000-0 29832-4 0 842 2 03669 088.4147 066.4670 1715300 062.0363 314.3598 11.28877995705185 METEOR 1-1 1 03835U 69029A 10210.72197553 +.00004785 +00000-0 +81165-4 0 04510 2 03835 081.1640 267.7870 0005544 229.3972 130.6791 15.51235750260481 SERT 2 1 04327U 70009A 10210.65250735 +.00000032 +00000-0 +10000-3 0 02003 2 04327 099.1570 062.6130 0005175 004.0133 356.1046 13.58240538006118 SL-3 R/B 1 04814U 70113B 10210.80667488 .00000704 00000-0 36783-4 0 3299 2 04814 081.1528 109.6857 0038582 289.2403 070.4681 15.13999870151908 SL-3 R/B 1 05118U 71028B 10210.79627403 .00000195 00000-0 12655-4 0 4897 2 05118 081.2399 135.9505 0047429 318.6439 041.1230 15.02565522125324 ASTEX 1 1 05560U 71089A 10210.77520742 +.00000091 +00000-0 +25697-4 0 01657 2 05560 092.7201 114.6755 0016099 176.7616 183.3701 14.46269472037511 SL-8 R/B 1 05730U 71119B 10210.67627636 +.00000830 +00000-0 +64403-4 0 05393 2 05730 073.9015 179.4925 0800478 188.3377 170.3772 13.77803905856394 COSMOS 482 DESCENT CRAFT 1 06073U 72023E 10211.72928119 .00015480 35840-5 11282-3 0 1413 2 06073 052.0857 089.2025 2161923 144.7263 231.8285 11.27288677 61197 OAO 3 (COPERNICUS) 1 06153U 72065A 10210.61084339 .00000050 00000-0 15509-4 0 5336 2 06153 035.0084 273.9478 0006540 102.6228 257.5197 14.56612464 13888 ATLAS CENTAUR R/B 1 06155U 72065B 10210.53396094 +.00000090 +00000-0 +19283-4 0 02180 2 06155 035.0069 274.9305 0041173 008.7789 351.3632 14.68072895021801 OPS 8180 (RADCAT) 1 06212U 72076A 10210.78901337 +.00004369 +00000-0 +14816-3 0 00687 2 06212 098.5558 286.4044 0003717 054.2209 305.9394 15.31216940185190 SL-8 R/B 1 07004U 73107B 10210.46807214 +.00003567 +00000-0 +14232-3 0 03939 2 07004 073.9617 175.3072 0423626 302.3767 053.7060 14.70018985860101 SL-8 R/B 1 07338U 74044B 10210.66745546 .00013031 00000-0 22934-3 0 2351 2 07338 082.8757 051.1090 0199719 064.6275 297.5483 15.31086288861793 DELTA 1 R/B 1 08063U 75072B 10211.70900195 .00012475 -11477-5 32192-3 0 6312 2 08063 089.1412 300.9271 0923062 096.7514 273.9382 13.74995085524679 SL-8 R/B 1 08459U 75112B 10210.90074586 -.00000017 +00000-0 +30153-5 0 00093 2 08459 074.0559 042.8990 0016252 125.4135 234.8539 14.35911773813217 SL-3 R/B 1 10114U 77057B 10210.74292596 +.00000068 +00000-0 +82218-5 0 01780 2 10114 097.4581 102.6416 0017867 039.0125 321.2380 15.08979310803421 SL-3 R/B 1 10861U 78045B 10210.80297135 .00002384 00000-0 58785-4 0 3874 2 10861 081.2044 310.0625 0020055 015.7369 344.4504 15.39883660768012 SEASAT 1 1 10967U 78064A 10210.69733916 -.00000080 00000-0 17283-4 0 1778 2 10967 108.0142 093.3563 0002566 285.4920 074.5944 14.42212877683928 SL-14 R/B 1 11267U 79011B 10210.73025643 .00000089 00000-0 71638-5 0 1796 2 11267 082.5260 079.9818 0016861 306.5140 053.4525 14.87062081701565 SL-3 R/B (Decayed 2009-05-09) 1 11332U 79032B 09128.99194196 .28742236 -98106-6 11963-3 0 3452 2 11332 081.2079 330.3676 0011717 252.5071 107.8361 16.57177424659095 SL-8 R/B 1 11574U 79089B 10210.89825786 .00000125 00000-0 48341-4 0 6379 2 11574 074.0657 176.2208 0015560 358.4465 001.6647 14.39645484615214 SL-14 R/B 1 11672U 80005B 10210.73588935 +.00000112 +00000-0 +99413-5 0 07894 2 11672 082.5165 289.2749 0018318 019.4822 340.7101 14.86114178649730 SL-3 R/B 1 11849U 80051B 10210.77834820 +.00001293 +00000-0 +52801-4 0 02033 2 11849 097.7551 000.9430 0009353 264.3194 095.6984 15.26331832649828 SL-3 R/B 1 11933U 80069B 10210.72417766 .00001951 00000-0 55821-4 0 659 2 11933 081.2182 269.5537 0021056 241.5040 118.4088 15.35207293643660 COSMOS 1220 1 12054U 80089A 10210.78941174 +.00002345 +00000-0 +98420-4 0 03368 2 12054 064.9740 058.9973 0057752 331.1089 028.6840 15.24819212530333 SL-8 R/B 1 12139U 81003B 10210.54319897 .00002710 00000-0 16083-3 0 1159 2 12139 082.9554 092.1003 0590686 074.2445 292.3035 14.25382868485194 SL-8 R/B 1 12389U 81033B 10210.80365180 +.00002593 +00000-0 +83030-4 0 07279 2 12389 082.9199 322.6616 0395148 282.2049 073.5214 14.80345550497238 SL-3 R/B 1 12465U 81046B 10210.81427198 .00001152 00000-0 79037-4 0 1712 2 12465 081.2275 014.7840 0038457 033.1563 327.2041 15.04640922588246 METEOR PRIRODA 1 12585U 81065A 10210.61125077 .00000331 00000-0 25618-4 0 7120 2 12585 097.3574 245.3851 0020816 118.4630 241.8676 15.07535178581938 SL-3 R/B 1 12904U 81103B 10211.77448268 .00000196 00000-0 14287-4 0 2805 2 12904 081.1789 250.9635 0032839 016.7840 343.4438 14.98683816115553 SL-3 R/B 1 13068U 82013B 10211.75017003 .00000253 00000-0 18260-4 0 2860 2 13068 081.2046 197.0139 0023483 295.4422 064.4343 15.00454486545790 SL-3 R/B 1 13154U 82039B 10210.89856288 +.00000279 +00000-0 +24331-4 0 00327 2 13154 081.1836 176.7731 0045116 160.5212 199.7744 14.92881493527935 COSMOS 1400 1 13402U 82079A 10210.87715281 +.00002602 +00000-0 +90027-4 0 01410 2 13402 081.1299 358.5660 0008301 157.8661 202.2934 15.29492853531561 SL-3 R/B 1 13403U 82079B 10210.79005339 +.00000027 +00000-0 +40869-6 0 04062 2 13403 081.1713 252.5604 0038350 237.1009 122.6536 14.99309910519060 SL-3 R/B 1 13819U 83010B 10210.95142928 -.00000091 +00000-0 -78840-5 0 07888 2 13819 081.1040 193.5696 0037538 357.7568 002.3479 15.05283553494317 COSMOS 1484 1 14207U 83075A 10210.46902018 +.00005128 +00000-0 +99712-4 0 06581 2 14207 097.5851 350.8277 0014643 181.4389 178.6835 15.47984439924305 SL-3 R/B 1 14208U 83075B 10210.74055071 +.00000198 +00000-0 +19207-4 0 09677 2 14208 097.6272 264.6528 0049991 088.4851 272.2108 15.02417612468996 COSMOS 1500 1 14372U 83099A 10210.65574450 .00000035 00000-0 36666-6 0 4723 2 14372 082.5320 279.5799 0016328 076.2186 284.0868 15.04422759458199 SL-8 R/B 1 14484U 83111B 10210.78544415 .00007571 00000-0 23583-3 0 2703 2 14484 082.8429 190.5116 0422790 055.9415 308.1230 14.75794969360447 COSMOS 1536 1 14699U 84013A 10210.63092340 .00000579 00000-0 46385-4 0 8514 2 14699 082.5242 230.6601 0013145 315.3385 044.6777 14.98246436435749 COSMOS 1544 1 14819U 84027A 10210.51537402 +.00000187 +00000-0 +10133-4 0 08509 2 14819 082.5279 355.0223 0015447 137.2085 223.0344 15.08188559434767 SL-14 R/B 1 14820U 84027B 10210.60578437 +.00000077 +00000-0 +65980-5 0 04622 2 14820 082.5414 171.5551 0021343 069.3342 291.0157 14.82138707423326 ERBS 1 15354U 84108B 10210.68108920 .00000149 00000-0 22893-4 0 4376 2 15354 056.9890 272.4498 0023360 096.5016 263.8675 15.16263708413851 SL-8 R/B 1 15483U 85006B 10210.74612096 .00000015 00000-0 14211-4 0 1181 2 15483 074.0464 286.5620 0019070 168.7711 191.3875 14.35267245335694 SL-12 R/B(2) 1 15772U 85042D 10210.58377231 .00000153 00000-0 92248-4 0 2992 2 15772 071.1065 239.4302 0035568 348.3619 011.6673 14.20731854304240 SL-14 R/B 1 15945U 85069B 10210.82386744 +.00000062 +00000-0 +47933-5 0 04442 2 15945 082.5274 325.0458 0019273 296.0264 063.8969 14.82477025348334 SL-3 R/B 1 16111U 85090B 10210.79142456 +.00000507 +00000-0 +26418-4 0 03131 2 16111 097.5418 276.6239 0034108 345.0106 015.0121 15.20169849359019 SL-16 R/B 1 16182U 85097B 10210.61625428 -.00000290 +00000-0 -12255-3 0 02056 2 16182 071.0020 257.4732 0009143 295.4954 064.5234 14.15967057280240 SL-14 R/B 1 16496U 86006B 10210.49576756 .00000083 00000-0 72804-5 0 3530 2 16496 082.5245 202.8940 0021751 077.8729 282.4925 14.82576835324577 SL-14 R/B 1 16792U 86046B 10210.67047907 .00000114 00000-0 11480-4 0 2507 2 16792 082.4787 045.7384 0023248 285.2161 074.6484 14.81705886302352 SL-14 R/B 1 16882U 86055B 10210.66411876 .00000108 00000-0 10676-4 0 2459 2 16882 082.5175 064.7192 0022020 047.1568 313.1475 14.81656113295366 COSMOS 1812 1 17295U 87003A 10210.75828159 +.00000133 +00000-0 +77946-5 0 02551 2 17295 082.5206 073.8509 0014709 089.6983 270.5925 15.02695690279938 SL-14 R/B 1 17567U 87024B 10211.62565679 .00000098 00000-0 92580-5 0 1446 2 17567 082.5249 028.8626 0019811 354.7667 005.3330 14.82221715263950 COSMOS 1833 1 17589U 87027A 10210.90794838 -.00000028 +00000-0 +10737-4 0 06558 2 17589 070.9206 068.1796 0010046 211.9933 148.0582 14.12792356205197 SL-16 R/B 1 17590U 87027B 10210.57633685 .00000005 00000-0 26626-4 0 6025 2 17590 071.0006 044.0400 0005816 194.6708 165.4273 14.16484968208015 SL-14 R/B 1 17912U 87038B 10210.67151677 +.00000075 +00000-0 +65161-5 0 01370 2 17912 082.5020 246.9273 0018781 220.9020 139.0787 14.81524627255256 COSMOS 1844 1 17973U 87041A 10210.84862995 .00000372 00000-0 22119-3 0 6786 2 17973 070.8968 171.3173 0032228 295.1902 064.5874 14.13750304197756 SL-14 R/B 1 18153U 87055B 10211.79952673 .00000077 00000-0 66858-5 0 1417 2 18153 082.5018 301.4300 0024280 074.4324 285.9570 14.81752790245994 COSMOS 1867 1 18187U 87060A 10210.70929333 -.00000039 00000-0 23260-4 0 9424 2 18187 065.0109 064.6870 0019680 274.5550 085.3264 14.30867376204213 SL-14 R/B 1 18749U 88001B 10210.77834946 +.00000081 +00000-0 +73433-5 0 01488 2 18749 082.5146 138.3370 0018247 311.1916 048.7746 14.81693472217962 COSMOS 1933 1 18958U 88020A 10210.54338666 +.00000188 +00000-0 +14003-4 0 00477 2 18958 082.5301 357.8936 0013907 148.0453 212.1604 14.96898259214563 SL-3 R/B 1 19046U 88032B 10211.73279921 .00000064 00000-0 10992-4 0 5807 2 19046 097.8536 256.3366 0038008 161.5696 198.6971 14.96067094196096 SL-16 R/B 1 19120U 88039B 10210.55136413 -.00000247 +00000-0 -95214-4 0 09791 2 19120 071.0126 236.7498 0020103 083.6358 276.7066 14.18865231149670 COSMOS 1953 1 19210U 88050A 10210.76097125 .00000407 00000-0 33050-4 0 1601 2 19210 082.5205 294.7304 0017690 136.9101 223.3484 14.96817880200651 SL-8 R/B 1 19257U 88053B 10210.81646233 -.00000039 +00000-0 -44203-5 0 09391 2 19257 074.0485 155.3382 0021055 307.2637 052.6600 14.36430631157623 COSMOS 1975 1 19573U 88093A 10210.62872392 +.00000118 +00000-0 +82263-5 0 09295 2 19573 082.5216 240.8658 0018039 155.9152 204.2913 14.95555506182932 SL-14 R/B 1 19574U 88093B 10211.78320056 .00000077 00000-0 66939-5 0 1309 2 19574 082.5334 332.2657 0024012 111.3726 249.0068 14.81793448177060 SL-16 R/B 1 19650U 88102B 10210.70575240 -.00000258 +00000-0 -10723-3 0 02158 2 19650 070.9988 261.3156 0012571 044.5074 315.7057 14.15522750120146 INTERCOSMOS 24 1 20261U 89080A 10210.51666216 .00000216 00000-0 55362-4 0 2248 2 20261 082.5861 196.2146 1216258 124.5251 247.6809 12.53500362950611 SL-14 R/B 1 20262U 89080C 10210.89848830 .00000029 00000-0 63977-5 0 7254 2 20262 082.5922 224.9639 1240556 223.7540 125.8501 12.47790042948013 DELTA 1 R/B 1 20323U 89089B 10211.79478890 .00000066 00000-0 26852-4 0 8269 2 20323 097.0976 164.0704 0074813 059.6040 301.2523 14.46809239 91135 DELTA 2 R/B(1) 1 20453U 90008B 10210.79692056 .00001914 00000-0 14684-3 0 8393 2 20453 035.6301 342.4290 0373880 145.3047 217.2669 14.60089535 77627 COSMOS 2058 1 20465U 90010A 10211.74652626 .00000609 00000-0 58669-4 0 8587 2 20465 082.4942 131.7133 0019740 077.8037 282.5410 14.91130245109990 SL-14 R/B 1 20466U 90010B 10211.58757624 .00000077 00000-0 71420-5 0 7392 2 20466 082.4998 202.0212 0019922 310.5491 049.3985 14.79942994105568 SL-14 R/B 1 20511U 90018B 10210.84066242 .00000075 00000-0 70157-5 0 7460 2 20511 082.5246 133.2202 0019758 068.3234 292.0085 14.78659946100340 HST 1 20580U 90037B 10211.73259046 .00000454 00000-0 21880-4 0 6123 2 20580 028.4699 315.5786 0003215 301.9264 058.1026 15.01005622911304 SL-16 R/B 1 20625U 90046B 10210.57691064 .00000146 00000-0 10081-3 0 6458 2 20625 070.9980 025.8664 0015144 320.6433 039.3581 14.14394191 42256 COSMOS 2084 1 20663U 90055A 10210.70495109 +.00000040 +00000-0 +23746-4 0 08994 2 20663 062.7956 300.0186 0140059 063.2084 298.3251 14.85512898085491 SL-6 R/B(2) 1 20666U 90055D 10210.60745388 .00000056 00000-0 24673-4 0 9665 2 20666 062.7843 230.0910 0143073 080.2398 281.4827 14.86574854 86687 SL-8 R/B 1 20775U 90078B 10210.67655522 +.00003327 +00000-0 +19279-3 0 02930 2 20775 082.9359 259.5173 0723383 348.9702 009.6340 13.99372364993134 SL-14 R/B (Decayed 2007-01-08) 1 20967U 90104B 07008.18498612 .13537369 -13386-5 56173-4 0 5448 2 20967 082.4240 094.1023 0009798 286.5108 140.5507 16.57327006903997 SL-8 R/B 1 21088U 91006B 10210.46717182 +.00000072 +00000-0 +57751-4 0 07744 2 21088 082.9400 089.1883 0023028 154.0965 206.1355 13.76746668979546 OKEAN 3 1 21397U 91039A 10210.51773501 +.00000254 +00000-0 +25556-4 0 00435 2 21397 082.5225 356.4779 0019291 336.4936 023.5396 14.86986062035405 COSMOS 2151 1 21422U 91042A 10210.79279695 .00000100 00000-0 82039-5 0 6710 2 21422 082.5013 111.1154 0016709 029.0367 331.1741 14.87633403 34158 SL-14 R/B 1 21423U 91042B 10210.40678239 +.00000070 +00000-0 +64117-5 0 05358 2 21423 082.4948 149.1366 0017363 194.4205 165.6534 14.78438411030862 ERS 1 1 21574U 91050A 10210.63685753 .00000085 00000-0 43325-4 0 8051 2 21574 098.1530 211.8707 0033130 288.3942 071.3621 14.35720773996552 ARIANE 40 R/B 1 21610U 91050F 10210.81024647 .00000082 00000-0 41324-4 0 3780 2 21610 098.6883 185.5499 0002250 216.5425 143.5604 14.39185592998230 UARS 1 21701U 91063B 10210.90939479 +.00011073 +00000-0 +11936-3 0 00541 2 21701 056.9695 008.4741 0055833 250.8305 108.6722 15.62400341042776 INTERCOSMOS 25 1 21819U 91086A 10210.73243376 +.00000812 +00000-0 +15572-3 0 01394 2 21819 082.5571 128.1892 1550304 014.0917 349.8738 11.99183543810210 SL-14 R/B 1 21820U 91086B 10210.74850004 -.00000096 +00000-0 -27309-4 0 00341 2 21820 082.5598 158.8034 1588534 117.4341 259.7175 11.90918769807187 SL-8 R/B 1 21876U 92008B 10210.55228036 +.00000013 +00000-0 -18742-5 0 07437 2 21876 082.9239 185.7544 0033666 210.1767 149.7447 13.75386618925696 SL-8 R/B 1 21938U 92020B 10210.67358139 +.00000002 +00000-0 -13479-4 0 07700 2 21938 082.9261 066.9514 0029785 009.7889 350.3837 13.75036050917709 SL-16 R/B 1 22220U 92076B 10210.81627345 -.00000050 00000-0 -11261-5 0 2426 2 22220 070.9997 310.7316 0012448 151.3117 208.8734 14.16158779914779 SL-16 R/B 1 22285U 92093B 10210.78346541 -.00000332 +00000-0 -14738-3 0 02500 2 22285 071.0204 085.8643 0004554 332.9747 027.1134 14.14746709906895 COSMOS 2228 1 22286U 92094A 10210.77157209 .00000089 00000-0 78977-5 0 1202 2 22286 082.5177 216.3523 0022987 153.2094 207.0318 14.83172300949233 SL-16 R/B 1 22566U 93016B 10210.34821565 +.00000019 +00000-0 +34826-4 0 09816 2 22566 071.0098 304.5235 0010289 348.7403 011.3473 14.14670042895582 COSMOS 2242 1 22626U 93024A 10210.65154512 +.00000198 +00000-0 +21159-4 0 08785 2 22626 082.5200 244.1008 0021233 153.0656 207.1673 14.83323716932854 SL-16 R/B 1 22803U 93059B 10210.37723218 -.00000108 +00000-0 -30111-4 0 02037 2 22803 070.9905 147.6510 0019055 254.6740 105.2297 14.16544998872137 ARIANE 40 R/B 1 22830U 93061H 10210.80002667 -.00000003 00000-0 15902-4 0 847 2 22830 098.6262 160.8810 0011863 083.3043 276.9491 14.30514897878647 COSMOS 2278 1 23087U 94023A 10210.57109396 -.00000288 +00000-0 -12861-3 0 02424 2 23087 071.0499 212.8257 0006539 100.4565 259.7302 14.13302785839151 SL-16 R/B 1 23088U 94023B 10210.80871157 +.00000257 +00000-0 +15872-3 0 08753 2 23088 070.9985 158.4961 0004263 297.9520 062.1171 14.14470809839987 SL-16 R/B 1 23343U 94074B 10210.49651187 +.00000128 +00000-0 +26669-4 0 08481 2 23343 098.0806 179.2937 0006846 192.0677 168.0373 14.75037602845901 SL-16 R/B 1 23405U 94077B 10210.81307223 -.00000048 +00000-0 +00000-0 0 03156 2 23405 070.9764 100.8676 0003332 206.8358 153.2590 14.14941613809826 ERS 2 1 23560U 95021A 10211.73804396 .00000024 00000-0 25284-4 0 4219 2 23560 098.5654 285.9445 0001358 080.0502 280.0823 14.32240963798690 ARIANE 40+ R/B 1 23561U 95021B 10210.84777844 .00000023 00000-0 22592-4 0 6678 2 23561 098.4886 159.9554 0006695 151.5565 208.5988 14.36439645800119 SL-16 R/B 1 23705U 95058B 10210.55406911 -.00000100 +00000-0 -27025-4 0 01725 2 23705 071.0210 263.8389 0012953 178.1418 181.9770 14.14874491761481 SL-16 R/B 1 24298U 96051B 10210.81772968 +.00000006 +00000-0 +29521-4 0 03935 2 24298 070.8912 316.7405 0015861 319.8049 040.1880 14.12461382716798 ORBVIEW 2 (SEASTAR) 1 24883U 97037A 10211.46808406 .00000021 00000-0 23475-4 0 1969 2 24883 098.3378 343.0194 0002525 017.8313 342.2968 14.32196223691953 SL-16 R/B 1 25400U 98043G 10210.73479626 -.00000021 00000-0 82346-5 0 5632 2 25400 098.3200 243.6871 0010696 114.6802 245.5493 14.25116901626916 SL-16 R/B 1 25407U 98045B 10210.76896275 -.00000273 +00000-0 -11535-3 0 03871 2 25407 071.0115 284.2948 0005901 078.2644 281.9142 14.15514510620347 ISS (ZARYA) 1 25544U 98067A 10210.92591274 -.00001493 +00000-0 -67516-5 0 06089 2 25544 051.6445 011.8696 0007899 162.0873 335.0863 15.71304437670194 SL-8 R/B 1 25723U 99022C 10210.90090684 -.00000077 00000-0 11687-4 0 6068 2 25723 048.4434 157.6440 0021569 185.9672 174.0948 15.16595548621175 CZ-4 R/B 1 25732U 99025C 10210.83755939 -.00000017 00000-0 12817-4 0 4499 2 25732 098.6956 181.3232 0038551 071.2497 289.2846 14.17211102580446 OKEAN O 1 25860U 99039A 10210.71785036 .00000046 00000-0 14481-4 0 591 2 25860 097.8355 181.9779 0000960 046.1245 314.0039 14.73651322593167 SL-16 R/B 1 25861U 99039B 10210.55030587 +.00000010 +00000-0 +84611-5 0 04260 2 25861 097.7446 187.0811 0015026 286.8686 073.0871 14.76656466594459 SL-14 R/B 1 26874U 01032B 10210.78894691 .00001496 00000-0 41704-4 0 5120 2 26874 082.4794 004.4724 0024563 121.9658 238.3951 15.35574995502805 ENVISAT 1 27386U 02009A 10211.78648378 .00000010 00000-0 19974-4 0 2902 2 27386 098.5491 278.2712 0001142 093.7383 266.3918 14.32248521439984 IDEFIX/ARIANE 42P 1 27422U 02021B 10210.74678787 .00000030 00000-0 28805-4 0 3972 2 27422 098.4865 284.7208 0013293 103.9188 256.3480 14.28560668427599 AQUA 1 27424U 02022A 10210.88996999 -.00004738 +00000-0 -10427-2 0 07040 2 27424 098.1892 151.4890 0001152 047.7739 312.3499 14.57099950438131 CZ-4B R/B 1 27432U 02024C 10210.46216792 .00000053 00000-0 49794-4 0 9341 2 27432 098.6205 184.2195 0050728 344.3394 015.6218 14.13632069423458 ADEOS 2 1 27597U 02056A 10210.67901345 +.00000020 +00000-0 +25725-4 0 02093 2 27597 098.4226 265.8247 0001082 115.6270 244.5020 14.26217537396878 H-2A R/B 1 27601U 02056E 10210.82248214 +.00000012 +00000-0 +20393-4 0 09774 2 27601 098.5580 299.4730 0072928 161.4076 198.9799 14.30761375398155 H-2A R/B 1 27700U 03009C 10210.75001677 +.00006162 +00000-0 +14754-3 0 01941 2 27700 096.9986 220.6665 0040961 076.9087 283.6774 15.40892429410386 CZ-4 R/B 1 28059U 03049C 10210.84043188 -.00000020 +00000-0 +72927-5 0 09344 2 28059 098.5766 344.9782 0051152 332.5265 027.3230 14.51472673358805 CZ-2C R/B 1 28222U 04012C 10210.71145902 .00001047 00000-0 92266-4 0 156 2 28222 097.3870 241.9205 0055830 119.1175 241.5676 14.97284991342959 SL-16 R/B 1 28353U 04021B 10210.79263445 -.00000000 +00000-0 +24871-4 0 06985 2 28353 071.0025 310.4209 0003562 039.6949 320.4417 14.13939481316726 CZ-4B R/B 1 28471U 04044B 10210.62846427 +.00004963 +00000-0 +10802-3 0 07159 2 28471 096.9614 220.3451 0096858 319.1127 040.2880 15.39823844320538 CZ-2C R/B 1 28480U 04046B 10210.67216966 -.00000195 00000-0 -59854-4 0 6655 2 28480 098.1517 096.4519 0144447 096.9450 264.8107 14.24857083296070 ARIANE 5 R/B 1 28499U 04049H 10210.61824160 +.00000132 +00000-0 +25354-4 0 07842 2 28499 098.3001 204.3487 0097547 010.3012 350.0160 14.77202173302422 CZ-2D R/B 1 28738U 05024B 10210.65517182 +.00000341 +00000-0 +31401-4 0 06996 2 28738 097.7869 231.1110 0009981 259.2533 100.7554 15.01139436277372 ASTRO E2 1 28773U 05025A 10210.36917016 +.00000382 +00000-0 +23445-4 0 03063 2 28773 031.4043 209.4101 0006492 252.5032 107.4903 15.01112226277439 ALOS 1 28931U 06002A 10211.79665167 .00000187 00000-0 48872-4 0 522 2 28931 098.1519 285.7763 0001305 096.7177 263.4159 14.59574073240508 H-2A R/B 1 28932U 06002B 10210.84054007 .00000482 00000-0 61440-4 0 4633 2 28932 098.2563 348.1382 0105499 200.0089 159.6997 14.82854291244106 ASTRO F (AKARI) 1 28939U 06005A 10210.89743253 +.00000064 +00000-0 +24091-4 0 03452 2 28939 098.2536 215.7060 0008466 004.2856 355.8407 14.57640670235480 M-5 R/B 1 28942U 06005D 10210.86794365 +.00056627 +35152-5 +26335-3 0 03193 2 28942 098.1357 071.3959 0114009 147.0220 213.8209 15.74282252249610 RESURS DK-1 1 29228U 06021A 10211.63962202 .00001814 00000-0 40658-4 0 6412 2 29228 069.9341 001.7955 0159411 236.2190 122.3677 15.33628459230928 COSMOS 2421 1 29247U 06026A 10211.76074225 .00279578 39637-4 51839-3 0 2088 2 29247 065.0241 299.1581 0020732 284.4129 075.4700 16.00453992233306 GENESIS 1 1 29252U 06029A 10210.79516205 +.00000309 +00000-0 +35402-4 0 01112 2 29252 064.5116 131.1229 0021689 340.9424 019.0868 15.03672407222199 H-2A R/B 1 29394U 06037B 10210.88056318 .00005974 00000-0 12812-3 0 1912 2 29394 097.3702 343.4237 0032070 323.7315 036.1761 15.44577775218017 M-5 R/B (Decayed 2009-10-20) 1 29480U 06041B 09292.83767789 +.12043556 +30710-5 +10894-3 0 00786 2 29480 098.2372 143.7071 0010206 333.6641 026.5161 16.51401864175082 CZ-4 R/B 1 29507U 06046C 10210.75360358 .00000126 00000-0 17510-4 0 2305 2 29507 097.6666 209.8094 0045596 034.7569 325.6611 14.92581112205049 SL-8 R/B 1 29659U 06060B 10210.91463916 +.00002039 +00000-0 +71927-4 0 00744 2 29659 098.1110 350.5657 0035793 259.1402 100.5803 15.30065013201345 ATLAS 5 CENTAUR R/B 1 30778U 07006G 10210.87617371 .00001387 00000-0 71584-4 0 9013 2 30778 035.7040 027.5839 0030080 214.1634 145.7155 15.16553156188005 CZ-2C R/B 1 31114U 07010B 10210.49883989 .00000005 00000-0 21114-4 0 8762 2 31114 098.2318 224.8045 0059844 326.0786 033.6583 14.18653418170906 GENESIS 2 1 31789U 07028A 10210.90592936 +.00000165 +00000-0 +25229-4 0 08638 2 31789 064.5039 162.4189 0027391 201.2638 158.7341 15.03348837169414 COSMOS 2428 1 31792U 07029A 10211.65945243 .00000096 00000-0 78269-4 0 4371 2 31792 070.9695 276.4823 0007553 133.0475 011.2568 14.12257293159166 SL-16 R/B 1 31793U 07029B 10210.73932257 -.00000183 +00000-0 -71279-4 0 09054 2 31793 070.9790 269.2244 0002086 266.8207 093.2672 14.14062292159222